Lid_Strength_Index
1 1 1 1 1 0 1 1 1 0 0 0 0 0 0 -0 -1 -0 -0 -0 0 2 3 3 3 1 1 1 2 2 2 2 4 3 2 1 1 1 1 0 0 0 0
1 1 1 1 1 1 1 1 0 1 -0 0 0 0 0 0 0 0 0 2 3 4 4 4 3 3 2 2 2 2 2 2 3 3 2 2 2 1 1 0 1 1 0
1 1 1 1 1 2 1 1 0 0 0 0 0 0 1 1 1 1 3 4 4 4 4 3 3 3 2 3 3 3 2 3 2 3 3 2 2 1 2 1 1 1 1
1 1 2 2 2 2 1 1 1 0 0 0 0 2 2 0 2 3 5 4 4 4 3 3 4 3 3 3 3 2 2 3 2 3 3 3 3 2 2 3 3 2 3
1 2 2 2 1 1 1 1 1 1 1 1 2 2 2 3 5 5 4 5 4 4 4 4 4 5 6 6 3 2 2 3 3 3 4 4 4 5 5 4 4 3 3
2 2 2 2 2 2 2 1 2 1 2 3 2 2 3 5 11 9 5 4 4 4 4 5 4 5 6 7 7 7 6 5 4 4 5 5 4 4 4 5 4 5 5
2 3 4 3 3 3 4 3 3 3 3 2 3 3 6 7 11 10 7 4 4 4 4 4 4 5 5 4 7 7 7 8 8 6 5 5 5 5 5 5 4 4 4
4 5 5 4 5 5 5 4 3 3 4 3 4 6 6 7 11 10 8 4 4 4 4 4 4 5 8 6 4 3 4 4 5 6 5 5 5 5 5 4 4 3 2
6 6 6 6 6 6 4 4 5 5 5 5 6 6 7 7 11 10 6 4 5 5 6 5 5 6 12 10 5 4 5 4 8 8 9 10 10 10 9 5 4 4 4
7 7 7 7 6 6 6 5 5 5 6 6 7 6 8 8 12 10 7 5 6 7 6 8 12 10 12 11 5 5 5 5 4 5 4 7 8 6 8 5 4 5 4
6 7 6 6 7 7 7 5 6 6 6 7 7 7 7 7 8 11 11 6 6 7 6 7 9 13 12 11 11 6 8 7 5 4 3 3 3 3 3 3 4 4 5
9 8 9 9 9 8 7 5 6 7 8 8 7 8 7 7 10 12 12 11 8 6 7 8 11 13 12 12 9 12 11 10 4 4 4 4 5 4 4 4 3 4 4
10 10 9 9 9 8 7 7 8 8 8 8 9 8 8 8 9 12 12 12 11 7 8 13 13 12 11 11 11 11 9 5 5 5 5 5 5 5 4 4 3 2 2
10 10 9 10 10 8 8 8 8 8 9 9 8 8 9 9 9 9 9 9 12 10 12 10 9 9 10 8 8 7 6 6 6 7 7 6 6 6 6 6 5 4 4
9 9 9 9 9 10 10 9 9 10 8 8 8 8 8 8 9 11 10 8 8 11 9 8 7 7 7 7 7 7 7 7 7 7 7 7 7 7 7 6 6 5 5
11 11 11 10 10 11 12 12 15 14 13 13 13 9 10 13 14 14 14 14 14 14 10 8 8 8 8 8 8 8 8 8 7 7 7 7 8 8 8 7 7 7 7
12 11 11 11 12 11 12 12 14 13 14 14 14 14 14 14 15 15 15 15 15 13 9 9 9 9 9 9 8 8 9 8 7 7 8 8 8 8 8 8 8 8 8
12 12 11 10 10 11 11 11 11 11 12 12 14 14 15 15 15 15 14 15 12 11 9 9 9 9 9 9 9 8 8 8 8 8 8 8 8 8 8 8 8 8 8
12 11 10 10 10 10 11 10 10 10 11 12 13 13 14 15 15 15 14 11 11 10 10 10 9 9 9 9 9 8 8 9 8 8 8 8 8 8 8 8 8 11 10
12 13 12 11 10 10 9 10 10 10 10 10 10 11 11 12 11 11 11 11 10 10 10 10 10 10 10 10 9 9 8 8 8 8 8 8 8 8 8 8 8 8 9
10 11 13 10 9 10 10 10 10 9 9 10 10 11 15 10 11 11 12 11 10 10 10 10 10 10 10 10 10 10 9 9 9 8 8 8 8 8 8 8 8 8 8
8 9 9 9 9 9 9 9 9 9 9 10 10 11 15 10 11 11 10 10 10 10 9 10 10 10 11 10 10 10 10 10 9 9 8 8 8 8 8 8 8 8 8
8 8 8 9 9 11 9 9 9 9 10 10 9 9 9 9 10 10 10 10 10 10 10 10 10 10 10 9 9 9 10 10 9 8 9 8 8 8 8 9 9 9 9
7 7 8 9 8 8 8 8 9 10 8 8 9 9 10 10 10 10 11 11 11 10 9 9 9 10 10 10 9 10 11 11 9 8 8 8 8 8 8 9 9 10 9
6 7 7 8 9 8 7 8 8 8 8 8 8 8 8 8 9 8 8 9 9 10 10 9 9 10 10 10 10 11 13 14 11 14 7 8 8 9 9 9 10 10 10
7 7 6 6 6 6 7 7 8 7 7 7 7 7 8 8 8 8 8 9 9 10 10 9 9 10 10 10 12 14 14 14 12 13 10 8 9 9 10 10 10 10 10